Powrót do katalogu

STARLINK-37124

AktywnyŁącznośćVLEO
NORAD 68283·PAYLOAD·🇺🇸 United States

Wystrzelony Mar 19, 2026 z Vandenberg Space Force Base

Loading…

Następne Przeloty (najbliższe 24 godziny)

TLE

ŚwieżeSource: CelesTrak SupGP

Epoka: Sep 15, 2026, 04:10 UTC

1 68283C 26055X   26258.17409722  .00046108  00000+0  13623-2 0  2583
2 68283  53.1567 156.5643 0001037  93.8569  64.4799 15.34366242    13

Śledź STARLINK-37124 w czasie rzeczywistym z AllMySat

Download on the App Store